Tracking 18980 objects as of 23-Feb-2018
HD Live streaming from Space Station
objects crossing your sky now

OPS 5058 (DMSP 5B F2)

Track OPS 5058 (DMSP 5B F2) now!
10-day predictions
OPS 5058 (DMSP 5B F2) is classified as:


NORAD ID: 5903
Int'l Code: 1972-018A
Perigee: 781.9 km
Apogee: 855.9 km
Inclination: 99.0 °
Period: 101.1 minutes
Semi major axis: 7189 km
RCS: 1.4687 m2 (large)
Launch date: March 24, 1972
Source: United States (US)
Launch site: AIR FORCE WESTERN TEST RANGE (AFWTR)
aabbcc
Your satellite tracking list
Your tracking list is empty




NASA's NSSDC Master Catalog

Two Line Element Set (TLE):
1  5903U 72018A   18053.70144883 +.00000003 +00000-0 +20985-4 0  9998
2  5903 098.9591 130.8285 0051444 188.3187 171.7144 14.24036088457918
Source of the keplerian elements: AFSPC